Regional Weather Roundup
Issued by NWS

Home | Current Version | Previous Version | Text Only | Print | Product List | Glossary Off
Versions: 1 2 3 4 5 6 7 8 9 10 11 12 13 14 15 16 17 18 19 20 21 22 23 24 25 26 27 28 29 30 31 32 33 34 35 36 37 38 39 40 41 42 43 44 45 46 47 48 49 50

000
ASUS43 KOAX 201502
RWRNE

WEATHER ROUNDUP FOR NEBRASKA
NATIONAL WEATHER SERVICE OMAHA NE
1000 AM CDT SAT SEP 20 2014

NOTES: SATELLITE DATA IS BEING USED TO AUGMENT CLOUD COVER ABOVE
       12000 FEET.
       "FAIR" INDICATES FEW OR NO CLOUDS BELOW 12,000 FEET WITH NO
       SIGNIFICANT WEATHER AND/OR OBSTRUCTIONS TO VISIBILITY.

  * THESE STATIONS DO NOT REPORT WEATHER SUCH AS RAIN...SNOW OR FOG.

NEZ001>004-019>022-054>056-201600-
NEBRASKA PANHANDLE

CITY           SKY/WX    TMP DP  RH WIND       PRES   REMARKS
SCOTTSBLUFF    SUNNY     61  49  64 NW9       30.18R
ALLIANCE       SUNNY     65  50  58 W7        30.15R
CHADRON        SUNNY     63  52  67 SW7       30.13R
KIMBALL        SUNNY     63  47  55 NW7       30.21R
SIDNEY         SUNNY     65  51  60 NW12      30.19R
$$

NEZ057>060-069>072-079>082-201600-
SOUTHWEST NEBRASKA

CITY           SKY/WX    TMP DP  RH WIND       PRES   REMARKS
NORTH PLATTE   SUNNY     70  53  54 NE13      30.06R
IMPERIAL       SUNNY     70  51  51 N9        30.10R
LEXINGTON      SUNNY     72  55  54 NE10G17   30.02R
MCCOOK         SUNNY     73  53  49 NE18      30.02R
OGALLALA       SUNNY     72  52  49 N9        30.12R
$$

NEZ005>010-023>029-035>040-094-201600-
NORTH CENTRAL NEBRASKA

CITY           SKY/WX    TMP DP  RH WIND       PRES   REMARKS
VALENTINE      SUNNY     70  52  52 NW9       30.05R
AINSWORTH      SUNNY     68  54  61 NW6       30.04R
BROKEN BOW     SUNNY     73  52  47 N9        30.03R
O`NEILL        SUNNY     69  59  69 NW7       30.00R
ORD            SUNNY     72  55  55 N8        29.99R
THEDFORD       SUNNY     72  53  51 N6        30.08R
$$

NEZ041-046>049-061>064-073>077-083>087-201600-
SOUTH CENTRAL NEBRASKA

CITY           SKY/WX    TMP DP  RH WIND       PRES   REMARKS
GRAND ISLAND   SUNNY     73  59  61 NE8       29.99R
AURORA         SUNNY     73  56  53 NE13      29.97R
HASTINGS       SUNNY     74  56  53 NE15      29.98R
HEBRON         SUNNY     75  62  65 SW6       29.95S
HOLDREGE       SUNNY     71  55  58 NE16G22   30.00R
KEARNEY *      SUNNY     72  57  60 N14       30.01R
YORK           SUNNY     72  64  78 NE5       29.97R
$$

NEZ011>018-030>034-042>045-201600-
NORTHEAST NEBRASKA

CITY           SKY/WX    TMP DP  RH WIND       PRES   REMARKS
NORFOLK        MOSUNNY   72  58  61 N5        29.96R
ALBION         SUNNY     71  56  58 N6        29.98R
BLAIR          CLOUDY    73  66  80 S5        29.93S
COLUMBUS *     SUNNY     72  59  64 N3        29.98R
FREMONT        PTSUNNY   74  64  72 CALM      29.94S
TEKAMAH        PTSUNNY   72  67  84 CALM      29.91S
WAYNE          MOSUNNY   68  61  79 CALM      29.96R
$$

NEZ050>053-065>068-078-088>093-201600-
SOUTHEAST NEBRASKA

CITY           SKY/WX    TMP DP  RH WIND       PRES   REMARKS
LINCOLN        MOSUNNY   73  67  81 CALM      29.95R
OMAHA EPPLEY   CLOUDY    72  65  78 CALM      29.93R
BEATRICE       MOSUNNY   71  66  83 S8        29.94R
FALLS CITY     CLOUDY    71  69  93 SE3       29.96R
NEBRASKA CITY    N/A     66  66 100 SE5       29.93F
PLATTSMOUTH    CLOUDY    67  65  91 CALM      29.94R
$$

NEZ044-045-051>053-067-201600-
OMAHA AREA

CITY           SKY/WX    TMP DP  RH WIND       PRES   REMARKS
OMAHA EPPLEY   CLOUDY    72  65  78 CALM      29.93R
BLAIR          CLOUDY    73  66  80 S5        29.93S
FREMONT        PTSUNNY   74  64  72 CALM      29.94S
MILLARD        CLOUDY    72  67  85 CALM      29.93S
OFFUTT AFB     CLOUDY    71  70  95 SW5       29.93R
PLATTSMOUTH    CLOUDY    67  65  91 CALM      29.94R
WAHOO          FAIR      74  65  73 CALM      29.93F
$$



USA.gov is the U.S. government's official web portal to all federal, state and local government web resources and services.